Time,TemperatureF,DewpointF,PressureIn,WindDirection,WindDirectionDegrees,WindSpeedMPH,WindSpeedGustMPH,Humidity,HourlyPrecipIn,Conditions,Clouds,dailyrainin,SoftwareType,DateUTC
2013-06-06 00:02:00,52.0,-99.9,30.00,NE,42,5.0,-999.0,-999,-99.99,,,-99.99,,2013-06-06 05:02:00,
2013-06-06 00:12:00,52.0,-99.9,30.00,NE,45,3.0,-999.0,-999,-99.99,,,-99.99,,2013-06-06 05:12:00,
2013-06-06 00:23:00,52.0,-99.9,30.00,NE,56,2.0,-999.0,-999,-99.99,,,-99.99,,2013-06-06 05:23:00,
2013-06-06 00:32:00,52.0,-99.9,30.00,NE,39,2.0,-999.0,-999,-99.99,,,-99.99,,2013-06-06 05:32:00,
2013-06-06 00:42:00,52.0,-99.9,29.99,NNE,18,2.0,-999.0,-999,-99.99,,,-99.99,,2013-06-06 05:42:00,
2013-06-06 00:52:00,52.0,-99.9,29.99,North,9,3.0,-999.0,-999,-99.99,,,-99.99,,2013-06-06 05:52:00,
2013-06-06 01:02:00,52.0,-99.9,29.99,NNW,345,3.0,-999.0,-999,-99.99,,,-99.99,,2013-06-06 06:02:00,
2013-06-06 01:12:00,52.0,-99.9,29.99,North,4,4.0,-999.0,-999,-99.99,,,-99.99,,2013-06-06 06:12:00,
2013-06-06 01:22:00,52.0,-99.9,29.99,NNE,12,4.0,-999.0,-999,-99.99,,,-99.99,,2013-06-06 06:22:00,
2013-06-06 01:33:00,52.0,-99.9,29.99,North,7,5.0,-999.0,-999,-99.99,,,-99.99,,2013-06-06 06:33:00,
2013-06-06 01:42:00,53.0,-99.9,29.98,NNE,15,6.0,-999.0,-999,-99.99,,,-99.99,,2013-06-06 06:42:00,
2013-06-06 01:52:00,52.0,-99.9,29.98,NNE,15,5.0,-999.0,-999,-99.99,,,-99.99,,2013-06-06 06:52:00,
2013-06-06 02:02:00,53.0,-99.9,29.98,NNE,19,5.0,-999.0,-999,-99.99,,,-99.99,,2013-06-06 07:02:00,
2013-06-06 02:12:00,52.0,-99.9,29.98,NNE,18,6.0,-999.0,-999,-99.99,,,-99.99,,2013-06-06 07:12:00,
2013-06-06 02:22:00,53.0,-99.9,29.98,NNE,19,5.0,-999.0,-999,-99.99,,,-99.99,,2013-06-06 07:22:00,
2013-06-06 02:33:00,52.0,-99.9,29.98,NNE,33,8.0,-999.0,-999,-99.99,,,-99.99,,2013-06-06 07:33:00,
2013-06-06 02:42:00,52.0,-99.9,29.98,NE,38,7.0,-999.0,-999,-99.99,,,-99.99,,2013-06-06 07:42:00,
2013-06-06 02:52:00,52.0,-99.9,29.98,NE,42,8.0,-999.0,-999,-99.99,,,-99.99,,2013-06-06 07:52:00,
2013-06-06 03:02:00,52.0,-99.9,29.99,NNE,32,7.0,-999.0,-999,-99.99,,,-99.99,,2013-06-06 08:02:00,
2013-06-06 03:12:00,52.0,-99.9,29.99,NNE,32,9.0,-999.0,-999,-99.99,,,-99.99,,2013-06-06 08:12:00,
2013-06-06 03:22:00,52.0,-99.9,29.98,NNE,31,8.0,-999.0,-999,-99.99,,,-99.99,,2013-06-06 08:22:00,
2013-06-06 03:32:00,52.0,-99.9,29.98,NNE,24,6.0,-999.0,-999,-99.99,,,-99.99,,2013-06-06 08:32:00,
2013-06-06 03:42:00,51.0,-99.9,29.99,NNE,29,6.0,-999.0,-999,-99.99,,,-99.99,,2013-06-06 08:42:00,
2013-06-06 03:52:00,51.0,-99.9,29.98,NNE,24,8.0,-999.0,-999,-99.99,,,-99.99,,2013-06-06 08:52:00,
2013-06-06 04:02:00,51.0,-99.9,29.98,NNE,25,8.0,-999.0,-999,-99.99,,,-99.99,,2013-06-06 09:02:00,
2013-06-06 04:12:00,51.0,-99.9,29.98,NNE,16,9.0,-999.0,-999,-99.99,,,-99.99,,2013-06-06 09:12:00,
2013-06-06 04:22:00,51.0,-99.9,29.98,NNE,25,8.0,-999.0,-999,-99.99,,,-99.99,,2013-06-06 09:22:00,
2013-06-06 04:33:00,51.0,-99.9,29.98,NNE,15,9.0,-999.0,-999,-99.99,,,-99.99,,2013-06-06 09:33:00,
2013-06-06 04:43:00,51.0,-99.9,29.98,NNE,13,10.0,-999.0,-999,-99.99,,,-99.99,,2013-06-06 09:43:00,
2013-06-06 04:53:00,51.0,-99.9,29.98,NNE,13,10.0,-999.0,-999,-99.99,,,-99.99,,2013-06-06 09:53:00,
2013-06-06 05:03:00,51.0,-99.9,29.98,NNE,13,9.0,-999.0,-999,-99.99,,,-99.99,,2013-06-06 10:03:00,
2013-06-06 05:12:00,51.0,-99.9,29.98,NNE,17,9.0,-999.0,-999,-99.99,,,-99.99,,2013-06-06 10:12:00,
2013-06-06 05:23:00,51.0,-99.9,29.98,North,10,8.0,-999.0,-999,-99.99,,,-99.99,,2013-06-06 10:23:00,
2013-06-06 05:33:00,50.0,-99.9,29.98,NNE,20,7.0,-999.0,-999,-99.99,,,-99.99,,2013-06-06 10:33:00,
2013-06-06 05:42:00,51.0,-99.9,29.98,NNE,17,7.0,-999.0,-999,-99.99,,,-99.99,,2013-06-06 10:42:00,
2013-06-06 05:53:00,51.0,-99.9,29.98,NNE,23,5.0,-999.0,-999,-99.99,,,-99.99,,2013-06-06 10:53:00,
2013-06-06 06:03:00,51.0,-99.9,29.98,NNE,23,9.0,-999.0,-999,-99.99,,,-99.99,,2013-06-06 11:03:00,
2013-06-06 06:12:00,51.0,-99.9,29.99,NNE,28,8.0,-999.0,-999,-99.99,,,-99.99,,2013-06-06 11:12:00,
2013-06-06 06:23:00,51.0,-99.9,29.99,NE,39,9.0,-999.0,-999,-99.99,,,-99.99,,2013-06-06 11:23:00,
2013-06-06 06:32:00,51.0,-99.9,29.99,NE,47,8.0,-999.0,-999,-99.99,,,-99.99,,2013-06-06 11:32:00,
2013-06-06 06:42:00,50.0,-99.9,29.99,NE,35,9.0,-999.0,-999,-99.99,,,-99.99,,2013-06-06 11:42:00,
2013-06-06 06:52:00,50.0,-99.9,30.00,NNE,32,10.0,-999.0,-999,-99.99,,,-99.99,,2013-06-06 11:52:00,
2013-06-06 07:03:00,50.0,-99.9,30.00,NE,34,7.0,-999.0,-999,-99.99,,,-99.99,,2013-06-06 12:03:00,
2013-06-06 07:13:00,50.0,-99.9,30.00,NNE,24,7.0,-999.0,-999,-99.99,,,-99.99,,2013-06-06 12:13:00,
2013-06-06 07:23:00,50.0,-99.9,30.00,NE,42,8.0,-999.0,-999,-99.99,,,-99.99,,2013-06-06 12:23:00,
2013-06-06 07:33:00,50.0,-99.9,30.00,NNE,27,9.0,-999.0,-999,-99.99,,,-99.99,,2013-06-06 12:33:00,
2013-06-06 07:43:00,50.0,-99.9,30.00,NE,43,10.0,-999.0,-999,-99.99,,,-99.99,,2013-06-06 12:43:00,
2013-06-06 07:53:00,51.0,-99.9,30.00,NNE,33,7.0,-999.0,-999,-99.99,,,-99.99,,2013-06-06 12:53:00,
2013-06-06 08:03:00,51.0,50.0,30.00,NE,48,7.0,-999.0,98,-99.99,,,-99.99,,2013-06-06 13:03:00,
2013-06-06 08:13:00,51.0,50.0,30.00,NE,55,5.0,-999.0,97,-99.99,,,-99.99,,2013-06-06 13:13:00,
2013-06-06 08:22:00,51.0,50.0,30.00,NNE,27,6.0,-999.0,96,-99.99,,,-99.99,,2013-06-06 13:22:00,
2013-06-06 08:32:00,51.0,50.0,30.00,NE,35,5.0,-999.0,96,-99.99,,,-99.99,,2013-06-06 13:32:00,
2013-06-06 08:43:00,51.0,49.0,30.00,NE,49,9.0,-999.0,93,-99.99,,,-99.99,,2013-06-06 13:43:00,
2013-06-06 08:52:00,51.0,49.0,30.00,NE,49,9.0,-999.0,93,-99.99,,,-99.99,,2013-06-06 13:52:00,
2013-06-06 09:03:00,52.0,49.0,30.00,NNE,33,9.0,-999.0,89,-99.99,,,-99.99,,2013-06-06 14:03:00,
2013-06-06 09:13:00,52.0,49.0,30.00,NE,35,9.0,-999.0,89,-99.99,,,-99.99,,2013-06-06 14:13:00,
2013-06-06 09:22:00,52.0,49.0,30.00,NE,43,12.0,-999.0,88,-99.99,,,-99.99,,2013-06-06 14:22:00,
2013-06-06 09:33:00,52.0,49.0,30.00,NNE,23,13.0,-999.0,87,-99.99,,,-99.99,,2013-06-06 14:33:00,
2013-06-06 09:43:00,52.0,49.0,30.00,NNE,26,13.0,-999.0,88,-99.99,,,-99.99,,2013-06-06 14:43:00,
2013-06-06 09:52:00,52.0,49.0,30.00,NNE,26,13.0,-999.0,88,-99.99,,,-99.99,,2013-06-06 14:52:00,
2013-06-06 10:03:00,52.0,49.0,30.00,NNE,27,11.0,-999.0,89,-99.99,,,-99.99,,2013-06-06 15:03:00,
2013-06-06 10:13:00,52.0,49.0,30.01,NNE,31,12.0,-999.0,88,-99.99,,,-99.99,,2013-06-06 15:13:00,
2013-06-06 10:23:00,52.0,49.0,30.01,NE,34,12.0,-999.0,90,-99.99,,,-99.99,,2013-06-06 15:23:00,
2013-06-06 10:33:00,52.0,49.0,30.01,NE,34,12.0,-999.0,90,-99.99,,,-99.99,,2013-06-06 15:33:00,
2013-06-06 10:43:00,52.0,49.0,30.01,NE,34,12.0,-999.0,90,-99.99,,,-99.99,,2013-06-06 15:43:00,
2013-06-06 10:53:00,52.0,48.0,30.01,NNE,30,9.0,-999.0,87,-99.99,,,-99.99,,2013-06-06 15:53:00,
2013-06-06 11:03:00,54.0,48.0,30.01,NNE,31,6.0,-999.0,80,-99.99,,,-99.99,,2013-06-06 16:03:00,
2013-06-06 11:12:00,54.0,48.0,30.00,ENE,61,9.0,-999.0,81,-99.99,,,-99.99,,2013-06-06 16:12:00,
2013-06-06 11:23:00,54.0,48.0,30.00,North,11,6.0,-999.0,80,-99.99,,,-99.99,,2013-06-06 16:23:00,
2013-06-06 11:33:00,55.0,49.0,30.00,North,1,8.0,-999.0,79,-99.99,,,-99.99,,2013-06-06 16:33:00,
2013-06-06 11:43:00,54.0,48.0,30.00,NNE,28,4.0,-999.0,79,-99.99,,,-99.99,,2013-06-06 16:43:00,
2013-06-06 11:52:00,54.0,48.0,30.00,NNE,28,4.0,-999.0,79,-99.99,,,-99.99,,2013-06-06 16:52:00,
2013-06-06 12:03:00,54.0,48.0,30.01,North,5,4.0,-999.0,78,-99.99,,,-99.99,,2013-06-06 17:03:00,
2013-06-06 12:13:00,55.0,47.0,30.01,NE,40,7.0,-999.0,75,-99.99,,,-99.99,,2013-06-06 17:13:00,
2013-06-06 12:23:00,56.0,48.0,30.01,NE,37,9.0,-999.0,74,-99.99,,,-99.99,,2013-06-06 17:23:00,
2013-06-06 12:33:00,56.0,48.0,30.01,North,11,6.0,-999.0,75,-99.99,,,-99.99,,2013-06-06 17:33:00,
2013-06-06 12:43:00,55.0,47.0,30.01,NNE,24,6.0,-999.0,73,-99.99,,,-99.99,,2013-06-06 17:43:00,
2013-06-06 12:52:00,56.0,48.0,30.01,North,8,6.0,-999.0,75,-99.99,,,-99.99,,2013-06-06 17:52:00,
2013-06-06 13:03:00,56.0,48.0,30.01,NE,47,4.0,-999.0,74,-99.99,,,-99.99,,2013-06-06 18:03:00,
2013-06-06 13:13:00,56.0,49.0,30.01,NE,53,4.0,-999.0,76,-99.99,,,-99.99,,2013-06-06 18:13:00,
2013-06-06 13:23:00,57.0,48.0,30.01,NNE,12,6.0,-999.0,73,-99.99,,,-99.99,,2013-06-06 18:23:00,
2013-06-06 13:33:00,57.0,48.0,30.00,North,4,3.0,-999.0,73,-99.99,,,-99.99,,2013-06-06 18:33:00,
2013-06-06 13:43:00,57.0,48.0,30.01,NE,41,5.0,-999.0,72,-99.99,,,-99.99,,2013-06-06 18:43:00,
2013-06-06 13:53:00,57.0,48.0,30.01,NNE,26,5.0,-999.0,72,-99.99,,,-99.99,,2013-06-06 18:53:00,
2013-06-06 14:03:00,58.0,48.0,30.00,NNE,29,3.0,-999.0,70,-99.99,,,-99.99,,2013-06-06 19:03:00,
2013-06-06 14:13:00,57.0,48.0,30.00,South,172,3.0,-999.0,72,-99.99,,,-99.99,,2013-06-06 19:13:00,
2013-06-06 14:23:00,58.0,49.0,30.00,NNW,343,2.0,-999.0,71,-99.99,,,-99.99,,2013-06-06 19:23:00,
2013-06-06 14:33:00,59.0,49.0,30.00,NW,323,1.0,-999.0,70,-99.99,,,-99.99,,2013-06-06 19:33:00,
2013-06-06 14:43:00,58.0,48.0,30.00,NE,39,3.0,-999.0,69,-99.99,,,-99.99,,2013-06-06 19:43:00,
2013-06-06 14:52:00,58.0,48.0,30.00,North,2,7.0,-999.0,70,-99.99,,,-99.99,,2013-06-06 19:52:00,
2013-06-06 15:03:00,58.0,48.0,29.99,NNE,24,6.0,-999.0,69,-99.99,,,-99.99,,2013-06-06 20:03:00,
2013-06-06 15:13:00,58.0,48.0,29.99,North,4,9.0,-999.0,69,-99.99,,,-99.99,,2013-06-06 20:13:00,
2013-06-06 15:23:00,59.0,49.0,29.99,NNE,26,5.0,-999.0,69,-99.99,,,-99.99,,2013-06-06 20:23:00,
2013-06-06 15:33:00,58.0,49.0,29.99,North,10,7.0,-999.0,71,-99.99,,,-99.99,,2013-06-06 20:33:00,
2013-06-06 15:42:00,58.0,49.0,29.99,NNE,18,8.0,-999.0,71,-99.99,,,-99.99,,2013-06-06 20:42:00,
2013-06-06 15:53:00,58.0,49.0,29.99,NNE,18,8.0,-999.0,71,-99.99,,,-99.99,,2013-06-06 20:53:00,
2013-06-06 16:03:00,59.0,49.0,29.99,NNE,16,5.0,-999.0,69,-99.99,,,-99.99,,2013-06-06 21:03:00,
2013-06-06 16:13:00,59.0,48.0,29.99,NE,34,7.0,-999.0,68,-99.99,,,-99.99,,2013-06-06 21:13:00,
2013-06-06 16:23:00,59.0,49.0,29.99,NNE,17,6.0,-999.0,69,-99.99,,,-99.99,,2013-06-06 21:23:00,
2013-06-06 16:33:00,59.0,49.0,29.99,NNE,32,9.0,-999.0,69,-99.99,,,-99.99,,2013-06-06 21:33:00,
2013-06-06 16:43:00,59.0,48.0,29.98,NE,40,5.0,-999.0,68,-99.99,,,-99.99,,2013-06-06 21:43:00,
2013-06-06 16:53:00,59.0,48.0,29.98,NE,40,5.0,-999.0,68,-99.99,,,-99.99,,2013-06-06 21:53:00,
2013-06-06 17:03:00,59.0,50.0,29.99,NNE,12,7.0,-999.0,70,-99.99,,,-99.99,,2013-06-06 22:03:00,
2013-06-06 17:13:00,59.0,48.0,29.98,NE,49,8.0,-999.0,67,-99.99,,,-99.99,,2013-06-06 22:13:00,
2013-06-06 17:23:00,59.0,49.0,29.98,NNE,30,8.0,-999.0,68,-99.99,,,-99.99,,2013-06-06 22:23:00,
2013-06-06 17:33:00,60.0,49.0,29.99,ENE,60,8.0,-999.0,68,-99.99,,,-99.99,,2013-06-06 22:33:00,
2013-06-06 17:43:00,60.0,49.0,29.99,ENE,60,8.0,-999.0,67,-99.99,,,-99.99,,2013-06-06 22:43:00,
2013-06-06 17:53:00,60.0,49.0,29.98,East,95,3.0,-999.0,68,-99.99,,,-99.99,,2013-06-06 22:53:00,
2013-06-06 18:02:00,60.0,49.0,29.98,ENE,72,6.0,-999.0,67,-99.99,,,-99.99,,2013-06-06 23:02:00,
2013-06-06 18:12:00,60.0,48.0,29.98,NE,52,5.0,-999.0,66,-99.99,,,-99.99,,2013-06-06 23:12:00,
2013-06-06 18:22:00,60.0,48.0,29.98,NNE,32,2.0,-999.0,66,-99.99,,,-99.99,,2013-06-06 23:22:00,
2013-06-06 18:33:00,60.0,48.0,29.99,ENE,71,3.0,-999.0,65,-99.99,,,-99.99,,2013-06-06 23:33:00,
2013-06-06 18:43:00,60.0,48.0,29.98,North,7,3.0,-999.0,65,-99.99,,,-99.99,,2013-06-06 23:43:00,
2013-06-06 18:52:00,60.0,48.0,29.98,North,7,3.0,-999.0,65,-99.99,,,-99.99,,2013-06-06 23:52:00,
2013-06-06 19:02:00,60.0,48.0,29.98,NNE,31,3.0,-999.0,65,-99.99,,,-99.99,,2013-06-07 00:02:00,
2013-06-06 19:12:00,60.0,48.0,29.98,NNE,27,4.0,-999.0,64,-99.99,,,-99.99,,2013-06-07 00:12:00,
2013-06-06 19:22:00,60.0,47.0,29.98,NE,46,1.0,-999.0,63,-99.99,,,-99.99,,2013-06-07 00:22:00,
2013-06-06 19:32:00,60.0,47.0,29.98,NE,46,1.0,-999.0,63,-99.99,,,-99.99,,2013-06-07 00:32:00,
2013-06-06 19:42:00,60.0,48.0,29.98,East,83,1.0,-999.0,64,-99.99,,,-99.99,,2013-06-07 00:42:00,
2013-06-06 19:52:00,60.0,48.0,29.98,ESE,109,1.0,-999.0,64,-99.99,,,-99.99,,2013-06-07 00:52:00,
2013-06-06 20:02:00,61.0,48.0,29.98,East,95,1.0,-999.0,62,-99.99,,,-99.99,,2013-06-07 01:02:00,
2013-06-06 20:12:00,63.0,48.0,29.98,SE,143,1.0,-999.0,59,-99.99,,,-99.99,,2013-06-07 01:12:00,
2013-06-06 20:22:00,63.0,48.0,29.98,SE,135,-999.0,-999.0,58,-99.99,,,-99.99,,2013-06-07 01:22:00,
2013-06-06 20:32:00,61.0,48.0,29.98,ENE,74,3.0,-999.0,62,-99.99,,,-99.99,,2013-06-07 01:32:00,
2013-06-06 20:42:00,62.0,48.0,29.97,East,86,-999.0,-999.0,60,-99.99,,,-99.99,,2013-06-07 01:42:00,
2013-06-06 20:52:00,62.0,48.0,29.98,East,86,-999.0,-999.0,60,-99.99,,,-99.99,,2013-06-07 01:52:00,
2013-06-06 21:02:00,61.0,49.0,29.98,SSE,154,4.0,-999.0,64,-99.99,,,-99.99,,2013-06-07 02:02:00,
2013-06-06 21:12:00,60.0,49.0,29.97,SSE,154,5.0,-999.0,69,-99.99,,,-99.99,,2013-06-07 02:12:00,
2013-06-06 21:22:00,59.0,50.0,29.97,SSE,157,5.0,-999.0,71,-99.99,,,-99.99,,2013-06-07 02:22:00,
2013-06-06 21:32:00,59.0,50.0,29.97,SSE,147,4.0,-999.0,72,-99.99,,,-99.99,,2013-06-07 02:32:00,
2013-06-06 21:42:00,58.0,49.0,29.98,SSE,152,4.0,-999.0,72,-99.99,,,-99.99,,2013-06-07 02:42:00,
2013-06-06 21:52:00,58.0,49.0,29.98,SE,141,2.0,-999.0,72,-99.99,,,-99.99,,2013-06-07 02:52:00,
2013-06-06 22:02:00,57.0,50.0,29.99,ESE,106,1.0,-999.0,78,-99.99,,,-99.99,,2013-06-07 03:02:00,
2013-06-06 22:12:00,57.0,50.0,29.99,East,86,4.0,-999.0,77,-99.99,,,-99.99,,2013-06-07 03:12:00,
2013-06-06 22:22:00,57.0,50.0,29.99,ESE,110,1.0,-999.0,77,-99.99,,,-99.99,,2013-06-07 03:22:00,
2013-06-06 22:33:00,57.0,50.0,30.00,ESE,116,3.0,-999.0,78,-99.99,,,-99.99,,2013-06-07 03:33:00,
2013-06-06 22:43:00,56.0,51.0,30.00,ESE,108,5.0,-999.0,81,-99.99,,,-99.99,,2013-06-07 03:43:00,
2013-06-06 22:53:00,56.0,51.0,30.00,ESE,108,5.0,-999.0,81,-99.99,,,-99.99,,2013-06-07 03:53:00,
2013-06-06 23:03:00,56.0,51.0,30.01,SE,125,5.0,-999.0,83,-99.99,,,-99.99,,2013-06-07 04:03:00,
2013-06-06 23:12:00,56.0,51.0,30.01,ESE,119,7.0,-999.0,82,-99.99,,,-99.99,,2013-06-07 04:12:00,
2013-06-06 23:23:00,56.0,51.0,30.01,ESE,116,7.0,-999.0,83,-99.99,,,-99.99,,2013-06-07 04:23:00,
2013-06-06 23:33:00,55.0,50.0,30.01,SE,126,8.0,-999.0,83,-99.99,,,-99.99,,2013-06-07 04:33:00,
2013-06-06 23:42:00,55.0,50.0,30.00,ESE,122,7.0,-999.0,84,-99.99,,,-99.99,,2013-06-07 04:42:00,
2013-06-06 23:53:00,55.0,50.0,30.00,ESE,122,7.0,-999.0,84,-99.99,,,-99.99,,2013-06-07 04:53:00,